Voltar ao catálogo

QIANFAN-83

AtivoComunicaçõesPO
NORAD 63169·PAYLOAD·🇨🇳 China

Lançado Mar 11, 2025 de Wenchang Space Launch Site

Loading…

Próximas Passagens (próximas 24 horas)

TLE

AtualizadoSource: Space-Track

Época: Sep 14, 2026, 22:09 UTC

1 63169U 25046L   26257.92352413  .00000044  00000-0  40811-4 0  9999
2 63169  88.9653 290.4776 0014735  28.6113 331.5850 13.62064660 85194

Acompanhe QIANFAN-83 em tempo real com AllMySat

Download on the App Store